Temperature
13 13 13 13 13 13 14 14 14 14 14 14 14 15 15 15 15 15 15 15 15 15 15 15 15 15 15 15 15 15 15 15 15 15 15 15 15 15 15 15 15 15 15
13 13 13 13 13 13 14 14 14 14 14 14 14 14 15 15 15 15 15 15 15 15 15 15 15 15 15 15 15 15 15 15 15 15 15 15 15 15 15 15 15 15 15
13 13 13 13 13 13 13 14 14 14 14 14 14 14 14 14 14 15 15 15 15 15 15 15 15 15 15 15 15 15 15 14 14 14 14 14 14 14 14 14 14 14 14
12 13 13 13 13 13 13 13 13 13 14 14 14 14 14 14 14 14 14 14 14 14 15 15 15 15 15 15 15 14 14 14 14 14 14 14 14 14 14 14 14 14 14
12 13 13 13 13 13 13 13 13 13 13 14 14 14 14 14 14 14 14 14 14 14 14 14 15 14 14 14 14 14 14 14 14 14 14 14 14 14 14 14 14 14 14
12 12 12 12 12 13 13 13 13 13 13 13 13 13 13 14 14 14 14 14 14 14 14 14 14 14 14 14 14 14 14 14 14 14 13 13 14 14 14 14 14 14 13
12 12 12 12 12 12 12 12 12 13 13 13 13 13 13 13 13 13 13 14 14 14 14 14 14 14 14 14 14 14 13 13 13 13 13 13 13 13 13 13 13 13 13
11 11 12 12 12 12 12 12 12 12 13 13 13 13 13 13 13 13 13 13 13 13 13 14 14 14 14 14 13 13 13 13 13 13 13 13 13 13 13 13 13 13 13
11 11 11 11 11 11 11 12 12 12 12 12 12 13 13 13 13 13 13 13 13 13 13 13 13 13 13 13 13 13 13 13 13 13 13 13 13 13 13 13 13 13 13
10 11 11 11 11 11 11 11 11 11 12 12 12 12 12 12 12 12 12 13 13 13 13 13 13 13 13 13 13 13 13 13 13 13 13 13 13 13 13 13 13 13 13
10 10 10 10 11 11 11 11 11 11 11 11 12 12 12 12 12 12 12 12 12 12 12 12 12 12 12 12 12 12 12 12 12 12 12 12 13 12 13 13 13 13 13
10 10 10 10 10 10 10 10 10 10 10 11 11 11 11 11 11 11 11 12 12 12 12 12 12 12 12 12 12 12 12 12 12 12 12 12 12 12 12 12 12 12 12
9 9 9 9 10 10 10 10 10 10 10 10 10 10 10 11 11 11 11 11 11 11 11 11 11 11 11 11 11 11 12 12 12 12 12 12 12 12 12 12 12 12 12
8 9 9 9 9 9 9 9 9 9 9 9 9 10 10 10 10 10 10 10 10 10 10 11 11 11 11 11 11 11 11 11 11 11 11 11 12 12 12 12 12 12 12
8 8 8 8 8 9 9 9 9 9 9 9 9 9 9 10 10 10 10 10 10 10 10 10 10 10 10 10 10 10 11 11 11 11 11 11 11 11 11 11 11 11 11
7 7 8 8 8 8 8 8 8 8 8 9 9 9 9 9 9 9 9 9 9 9 10 10 9 9 9 10 10 10 10 10 10 11 11 11 11 11 11 11 11 11 11
7 7 7 7 7 7 8 8 8 8 8 8 8 8 8 8 9 9 9 9 9 9 9 9 9 9 9 9 9 9 10 10 10 10 10 10 11 11 11 11 11 11 11
6 6 6 7 7 7 7 7 7 7 7 7 7 8 8 8 8 8 8 8 8 8 8 9 9 9 9 9 9 9 9 10 10 10 10 10 10 10 10 11 10 11 11
6 6 6 6 6 6 6 6 6 7 7 7 7 7 7 7 7 8 8 8 8 8 8 8 8 8 8 8 8 9 9 9 9 9 10 10 10 10 10 10 10 10 10
5 5 5 5 5 6 6 6 6 6 6 6 6 7 7 7 7 7 7 7 7 7 7 7 8 7 8 8 8 8 8 9 9 9 9 9 9 10 10 10 10 10 10
4 4 5 5 5 5 5 5 5 5 6 6 6 6 6 6 6 7 7 7 7 7 7 7 7 7 7 7 7 8 8 8 9 9 9 9 9 9 9 9 9 10 10
4 4 4 4 4 4 5 5 5 5 5 5 5 5 6 6 6 6 6 6 6 6 6 6 6 6 6 6 6 6 7 7 8 8 8 8 9 9 9 9 9 9 9
3 3 3 3 3 3 4 4 4 4 4 4 5 5 5 5 5 5 6 6 6 6 6 6 6 6 6 6 6 6 6 6 6 7 7 8 8 8 8 8 9 9 9
2 2 3 3 3 3 3 3 3 3 3 3 4 4 4 4 5 5 5 5 5 5 5 5 5 5 5 5 5 6 6 6 5 5 6 7 7 8 8 8 8 8 8
2 2 2 2 2 2 2 2 3 3 3 3 3 3 4 4 4 4 4 4 4 5 5 5 5 5 5 5 5 5 5 5 5 5 5 6 6 7 7 7 8 8 8
1 1 1 1 2 2 2 2 2 2 2 2 2 2 3 3 3 3 3 4 4 4 4 4 4 4 4 4 4 4 4 4 5 5 4 5 5 6 6 7 7 7 8
Wind_Speed
5 7 8 9 9 10 10 10 11 10 10 10 10 9 8 9 10 10 11 11 12 12 12 12 13 13 14 14 14 14 14 15 15 16 16 16 15 15 15 15 16 16 18
4 6 8 9 9 10 11 11 11 11 10 10 10 10 8 8 9 9 10 10 11 11 11 12 12 12 12 13 13 13 13 13 13 14 15 15 14 15 15 15 15 15 17
5 7 8 9 10 10 10 11 11 11 11 10 10 10 9 8 8 9 10 10 10 10 11 11 11 11 12 12 12 11 11 10 10 10 11 12 13 13 14 15 16 16 16
6 7 7 9 10 10 10 10 10 10 10 10 10 10 9 9 8 8 9 9 10 10 10 11 11 11 11 11 10 10 9 8 8 8 9 10 11 12 13 14 14 15 15
7 8 8 9 10 10 10 10 9 9 10 10 10 10 9 8 8 8 8 9 9 10 10 10 11 10 10 9 9 9 8 7 7 7 10 11 11 12 13 13 14 14 14
7 9 9 9 9 10 10 10 10 9 9 9 10 9 9 8 8 9 9 9 9 9 9 9 10 10 10 9 8 8 7 7 7 7 9 10 10 12 12 12 13 13 14
6 8 9 9 9 9 9 10 10 9 8 9 9 9 9 9 9 9 9 9 9 8 8 8 9 9 8 8 8 7 7 7 6 8 9 9 10 11 11 11 12 12 13
6 7 8 9 9 9 9 9 9 9 8 8 8 9 9 9 9 9 9 9 9 8 8 8 7 8 7 7 7 7 7 7 7 7 8 9 10 11 11 11 12 12 13
7 7 7 7 8 9 9 8 8 8 8 7 7 8 8 9 9 8 8 8 8 8 7 7 7 7 6 6 6 7 8 7 6 5 7 8 9 10 10 10 10 11 12
6 6 6 7 7 7 7 7 7 7 7 7 6 7 7 8 7 8 7 7 7 7 7 6 6 6 5 5 4 5 5 5 6 6 6 7 9 9 9 9 9 10 11
4 4 5 5 5 5 5 5 5 5 6 6 6 6 6 5 5 6 6 6 6 7 6 6 5 5 4 3 2 3 3 3 4 6 6 7 8 8 8 8 8 9 10
3 3 4 4 4 5 4 4 3 3 4 5 5 4 4 5 5 5 5 5 5 6 6 5 4 3 3 1 1 2 2 3 4 5 6 7 7 7 7 7 7 8 9
2 3 3 4 5 5 5 4 4 4 4 4 5 5 4 4 5 5 5 4 4 4 4 3 3 2 2 2 1 1 1 2 3 4 6 6 6 6 7 6 6 6 7
2 3 3 4 4 4 4 4 4 4 4 4 5 6 5 4 4 4 3 3 2 2 3 2 2 2 3 3 2 2 2 2 3 4 5 6 5 5 6 6 6 6 6
3 3 3 3 3 3 4 4 4 4 4 4 5 5 5 5 4 3 3 3 3 2 2 2 2 2 2 2 3 3 2 2 3 3 4 5 5 5 5 5 5 5 5
2 2 3 3 3 3 3 3 3 4 4 4 4 5 5 5 4 3 3 3 3 3 2 2 2 2 2 2 2 2 2 2 2 3 4 4 4 5 5 5 4 5 5
1 2 2 3 4 3 2 2 3 4 3 4 4 4 4 4 4 4 3 3 3 3 2 1 2 2 2 1 2 2 3 2 1 2 3 3 4 4 5 4 4 4 5
2 1 2 3 4 3 2 2 2 3 3 3 3 3 4 4 4 4 3 2 3 3 2 2 1 1 1 1 1 2 2 2 1 1 3 3 4 4 5 5 4 4 5
2 1 1 2 2 3 3 2 2 2 2 3 2 3 3 3 3 3 2 3 3 3 2 1 1 1 1 1 1 1 2 2 1 0 2 3 3 4 5 5 5 5 4
2 2 2 2 2 2 2 2 1 1 2 2 2 3 3 3 3 2 2 2 2 2 1 0 0 0 0 0 1 2 2 2 1 2 2 3 3 4 4 5 5 5 5
2 2 2 2 2 2 1 1 1 1 1 1 2 3 3 3 3 2 1 2 2 1 1 1 0 0 0 0 0 1 2 3 3 2 2 2 3 3 4 4 5 5 5
1 1 1 1 1 1 1 1 1 1 1 0 2 3 3 3 3 2 2 1 1 1 1 1 0 0 1 0 1 0 1 1 1 1 1 2 2 2 2 3 4 4 5
1 0 1 1 1 2 2 1 2 1 1 1 0 1 2 3 3 2 2 1 1 1 1 1 1 1 1 1 1 1 1 1 1 2 1 0 1 1 0 1 2 3 4
0 0 0 1 1 1 2 1 1 1 2 2 1 1 2 2 3 2 2 1 1 1 2 2 2 1 2 2 2 2 1 1 1 1 1 1 1 1 1 1 0 1 2
0 0 0 1 1 1 1 2 2 2 2 2 1 2 2 2 2 2 2 2 1 1 2 2 2 2 2 2 2 2 2 1 2 2 2 2 2 2 1 1 1 1 2
0 0 1 1 1 2 2 2 2 3 3 2 2 2 2 2 2 2 2 2 2 2 2 2 3 3 3 3 3 2 2 2 2 2 3 3 3 3 2 1 1 1 2
Wind_Direction
52 37 31 34 44 48 52 57 54 52 49 47 47 55 61 66 67 66 66 64 65 65 65 65 65 64 64 64 67 69 69 71 73 74 73 71 72 74 77 79 79 78 80
59 50 45 40 46 51 53 57 54 52 50 49 49 50 57 66 69 67 68 66 66 67 66 66 66 66 66 66 68 73 74 75 76 76 74 70 71 72 75 77 79 82 82
65 61 55 45 48 52 55 58 56 54 53 52 50 49 55 63 70 71 69 67 67 67 66 66 67 68 68 67 69 73 75 74 76 78 81 81 77 75 78 79 82 83 83
70 67 60 53 52 54 56 58 59 56 53 51 49 48 54 60 66 72 72 69 67 67 68 69 69 70 70 69 69 71 71 68 63 66 77 79 81 81 83 83 84 86 85
67 68 65 61 57 57 57 57 59 58 55 53 49 48 51 59 62 67 70 70 69 68 68 70 71 70 70 70 70 68 63 58 52 62 72 75 82 86 84 84 83 85 87
69 66 61 62 59 58 60 57 58 60 57 54 51 50 50 55 63 64 63 68 72 72 70 70 73 71 68 67 64 59 51 46 51 63 74 79 85 91 87 86 87 86 86
70 67 64 58 57 56 57 58 55 57 56 53 51 52 50 51 59 64 66 65 66 71 72 71 73 73 69 65 57 46 40 34 49 60 66 77 87 93 90 88 90 91 91
76 72 70 59 54 54 53 58 55 52 55 52 51 54 52 52 55 60 66 67 65 65 71 73 74 73 70 65 54 39 32 34 50 67 74 82 91 95 92 88 90 92 92
74 73 67 59 55 51 49 51 56 51 51 53 51 56 56 55 54 55 62 65 65 63 65 70 71 73 70 65 54 40 36 43 45 64 78 86 94 99 97 94 97 97 95
70 71 64 55 49 47 43 43 52 50 49 50 51 53 56 57 57 56 57 64 65 64 60 64 67 72 72 71 60 37 23 41 50 65 76 93 100 104 105 101 98 101 100
64 66 65 58 46 38 41 40 48 50 48 48 44 54 59 53 56 57 52 62 68 65 60 60 66 65 66 71 54 13 13 46 67 74 81 104 106 109 110 108 104 103 106
47 54 52 46 44 33 32 37 33 47 47 44 33 45 46 47 49 55 60 67 69 68 61 55 52 57 48 44 28 2 22 48 64 88 102 113 114 115 119 114 114 109 111
48 38 44 33 38 35 25 30 24 34 38 36 28 29 43 50 48 52 57 58 62 64 53 47 40 11 10 12 21 8 25 53 69 95 122 125 121 123 125 128 122 125 119
53 33 29 26 32 29 26 25 26 28 34 30 25 23 29 33 34 35 44 37 41 44 39 29 357 347 9 358 6 21 42 52 77 91 121 138 136 135 136 139 140 139 137
44 30 17 26 24 21 25 18 25 27 33 34 30 18 27 29 17 19 29 30 19 33 37 6 360 2 8 357 359 21 36 56 86 103 122 139 147 150 150 151 154 157 158
52 30 14 13 20 24 22 14 20 23 31 36 35 18 23 27 16 14 17 15 14 21 24 357 11 9 358 0 3 7 10 34 90 111 134 149 159 162 166 161 162 171 171
69 42 13 12 15 18 17 8 23 20 31 34 30 20 20 24 20 15 14 10 11 12 7 6 29 28 9 5 355 360 4 7 75 139 152 159 167 170 174 173 171 178 181
94 65 18 8 10 7 3 3 19 18 29 31 23 28 25 22 19 19 13 3 14 16 2 11 59 52 15 356 338 325 348 352 4 173 159 170 172 175 179 181 183 183 186
106 84 43 22 8 1 3 354 19 14 26 26 19 32 27 19 18 21 8 0 15 11 360 13 34 43 30 5 325 303 308 294 289 208 159 172 180 177 173 182 188 194 202
103 90 61 33 8 5 358 351 359 360 3 12 18 28 21 17 7 12 8 2 9 7 354 27 60 359 42 43 317 294 278 267 243 213 191 174 177 177 180 186 186 197 209
80 77 56 22 1 11 356 318 301 283 270 305 16 20 15 5 354 353 352 2 357 320 312 316 95 53 354 79 29 309 295 264 234 215 179 167 163 180 184 188 188 191 197
71 53 46 20 3 354 335 306 266 280 260 257 15 12 2 351 347 337 344 323 330 319 315 304 115 249 283 111 150 209 302 308 337 284 207 182 176 152 164 198 193 193 192
42 18 326 343 333 328 331 341 338 327 304 280 304 289 327 330 331 346 333 309 284 270 245 272 217 211 227 246 211 195 177 222 305 296 284 187 132 121 212 214 208 197 195
285 325 322 305 322 327 335 334 305 272 276 273 252 254 299 327 328 332 321 310 274 254 243 255 247 217 208 232 254 268 261 202 194 252 299 328 350 321 302 322 258 201 204
0 352 317 299 294 308 311 289 280 272 268 267 270 268 267 294 311 319 319 315 283 274 255 253 259 232 216 229 239 259 271 259 232 200 242 269 284 269 280 321 311 232 220
26 340 315 299 286 282 279 283 268 274 268 256 260 262 260 257 284 294 308 311 291 276 265 259 259 238 228 238 249 245 230 218 218 214 224 246 266 270 275 277 269 246 225
Height
1527 1528 1528 1529 1529 1530 1530 1530 1530 1530 1531 1531 1532 1532 1533 1533 1534 1534 1535 1535 1536 1536 1536 1537 1537 1537 1538 1538 1539 1539 1540 1540 1540 1541 1541 1541 1541 1541 1542 1542 1542 1542 1543
1527 1527 1528 1529 1529 1530 1530 1530 1530 1531 1531 1531 1532 1532 1533 1534 1535 1535 1536 1536 1536 1537 1537 1538 1538 1538 1539 1539 1540 1541 1541 1542 1542 1542 1543 1543 1543 1544 1544 1544 1544 1545 1545
1526 1527 1528 1529 1529 1530 1530 1530 1531 1531 1532 1532 1532 1533 1534 1534 1535 1536 1536 1537 1537 1538 1538 1538 1539 1539 1540 1540 1541 1542 1543 1543 1544 1544 1545 1545 1545 1546 1546 1546 1546 1547 1547
1526 1527 1527 1528 1529 1530 1530 1530 1531 1532 1532 1532 1533 1533 1534 1535 1535 1536 1537 1537 1538 1538 1538 1539 1539 1540 1541 1541 1542 1543 1544 1545 1545 1546 1546 1546 1547 1548 1548 1548 1548 1548 1549
1526 1526 1527 1528 1529 1529 1530 1530 1531 1532 1532 1533 1533 1534 1534 1535 1536 1536 1537 1537 1538 1538 1539 1539 1540 1541 1541 1542 1543 1544 1545 1546 1547 1547 1547 1548 1548 1549 1549 1550 1550 1550 1550
1525 1526 1527 1528 1529 1529 1530 1530 1531 1532 1532 1533 1533 1534 1534 1535 1536 1536 1537 1537 1538 1538 1539 1540 1540 1541 1542 1543 1544 1545 1546 1547 1547 1548 1548 1549 1549 1550 1550 1551 1551 1551 1552
1525 1526 1527 1528 1528 1529 1529 1530 1531 1531 1532 1533 1533 1534 1534 1535 1535 1536 1537 1537 1538 1538 1539 1540 1540 1541 1542 1543 1544 1545 1546 1547 1547 1548 1549 1549 1550 1551 1551 1552 1552 1552 1553
1525 1526 1526 1527 1528 1529 1529 1530 1530 1531 1532 1532 1533 1534 1534 1535 1535 1536 1536 1537 1538 1538 1539 1540 1540 1541 1542 1543 1544 1545 1546 1547 1548 1548 1549 1550 1551 1551 1552 1552 1553 1553 1554
1525 1525 1526 1527 1527 1528 1529 1529 1530 1530 1531 1532 1532 1533 1534 1534 1535 1535 1536 1537 1537 1538 1539 1539 1540 1541 1542 1543 1544 1545 1546 1547 1547 1548 1549 1550 1551 1551 1552 1553 1553 1554 1554
1524 1525 1525 1526 1527 1527 1528 1529 1529 1530 1530 1531 1531 1532 1533 1533 1534 1535 1535 1536 1537 1537 1538 1539 1539 1540 1541 1542 1544 1545 1546 1546 1547 1548 1549 1550 1550 1551 1552 1553 1553 1554 1555
1524 1524 1524 1525 1526 1526 1527 1528 1528 1529 1529 1530 1530 1531 1532 1532 1533 1534 1534 1535 1536 1536 1537 1538 1539 1539 1540 1542 1543 1544 1545 1546 1546 1547 1548 1549 1550 1551 1551 1552 1553 1554 1555
1522 1523 1523 1524 1525 1525 1526 1526 1527 1527 1528 1528 1529 1530 1530 1531 1532 1532 1533 1534 1535 1535 1536 1537 1538 1538 1539 1540 1542 1543 1544 1545 1546 1546 1547 1548 1549 1550 1551 1552 1553 1554 1555
1521 1522 1523 1523 1524 1524 1524 1525 1525 1526 1526 1527 1528 1528 1529 1529 1530 1531 1531 1532 1533 1534 1534 1535 1536 1537 1538 1539 1540 1541 1542 1544 1544 1545 1546 1547 1549 1549 1550 1551 1552 1553 1554
1520 1520 1521 1522 1522 1523 1523 1523 1524 1524 1525 1525 1526 1527 1527 1528 1528 1529 1530 1530 1531 1532 1533 1533 1534 1535 1537 1538 1539 1540 1541 1542 1543 1544 1545 1546 1547 1548 1549 1550 1551 1552 1553
1518 1518 1519 1520 1521 1521 1521 1522 1522 1523 1523 1524 1524 1525 1525 1526 1526 1527 1528 1529 1529 1530 1531 1532 1532 1533 1534 1536 1537 1538 1539 1540 1541 1542 1543 1544 1546 1547 1548 1549 1550 1551 1552
1516 1516 1517 1518 1519 1519 1520 1520 1521 1521 1522 1522 1522 1523 1524 1524 1525 1525 1526 1527 1527 1528 1529 1530 1530 1531 1532 1534 1535 1536 1537 1538 1539 1540 1541 1542 1544 1545 1547 1548 1549 1550 1551
1514 1514 1515 1516 1517 1517 1518 1518 1519 1519 1520 1520 1521 1521 1522 1522 1523 1524 1524 1525 1525 1526 1527 1528 1528 1529 1530 1531 1532 1533 1534 1536 1537 1538 1539 1540 1541 1543 1545 1546 1547 1548 1549
1512 1512 1513 1514 1514 1515 1516 1516 1516 1517 1518 1518 1518 1519 1519 1520 1521 1522 1522 1523 1523 1524 1525 1525 1526 1527 1528 1528 1529 1530 1532 1533 1534 1535 1536 1537 1539 1540 1542 1544 1545 1546 1547
1509 1510 1511 1511 1512 1512 1513 1514 1514 1515 1515 1516 1516 1516 1517 1518 1518 1519 1520 1521 1521 1522 1522 1523 1524 1524 1524 1525 1526 1527 1528 1530 1531 1532 1533 1535 1536 1537 1539 1541 1542 1544 1545
1506 1507 1508 1509 1509 1510 1510 1511 1512 1512 1513 1514 1514 1514 1515 1515 1516 1516 1517 1518 1519 1519 1520 1520 1521 1522 1522 1523 1523 1524 1525 1526 1527 1529 1530 1532 1533 1534 1536 1538 1539 1541 1542
1504 1504 1505 1506 1506 1507 1507 1508 1508 1509 1510 1510 1511 1511 1512 1513 1513 1514 1514 1515 1516 1516 1517 1518 1518 1519 1519 1520 1521 1521 1522 1523 1524 1526 1527 1529 1530 1531 1533 1534 1536 1538 1539
1502 1502 1502 1503 1504 1504 1505 1505 1506 1506 1507 1508 1508 1509 1509 1510 1510 1510 1511 1511 1512 1513 1514 1514 1515 1516 1516 1518 1518 1518 1519 1520 1521 1522 1524 1525 1527 1528 1529 1531 1533 1534 1536
1499 1500 1500 1500 1501 1501 1502 1502 1503 1503 1504 1504 1505 1505 1506 1506 1507 1507 1507 1508 1509 1510 1510 1511 1512 1513 1514 1515 1517 1518 1518 1517 1517 1519 1520 1522 1523 1525 1526 1527 1529 1530 1532
1497 1497 1498 1498 1498 1499 1499 1499 1499 1500 1499 1500 1501 1501 1502 1503 1504 1504 1504 1505 1506 1506 1507 1508 1509 1510 1511 1512 1514 1515 1516 1516 1516 1515 1516 1518 1520 1521 1522 1523 1525 1526 1528
1494 1494 1495 1495 1495 1496 1496 1496 1496 1497 1497 1497 1498 1498 1499 1500 1500 1501 1501 1501 1502 1503 1504 1504 1505 1507 1508 1509 1510 1511 1512 1513 1513 1513 1513 1514 1515 1517 1518 1520 1521 1522 1524
1491 1492 1492 1492 1492 1493 1493 1493 1493 1494 1494 1494 1494 1495 1495 1496 1496 1497 1497 1498 1499 1499 1500 1501 1501 1503 1504 1505 1507 1508 1509 1509 1509 1510 1510 1510 1511 1512 1514 1515 1517 1518 1520